STARLINK-32291

Last updated on Wed Jan 29 2025 00:02:04 GMT+0000 (Coordinated Universal Time)

1 62442U 24251L 25028.37175632 .00005019 00000+0 98150-4 0 9994 2 62442 53.1600 67.1159 0001763 94.9445 265.1765 15.49339247 5448
UTC large
Height (km)
Speed (km/s)
/
Latitude / Longitude
Inclination (degrees)
Orbital Period (minutes)
Azimuth
Elevation
Range (km)
Doppler Factor

Next 0 passes for location: London (51.5072 / 0.1276)

Sorry there are no passes over London.